Powrót do katalogu

CZ-6A DEB

AktywnySSO
NORAD 54959·DEBRIS·🇨🇳 China

Wystrzelony Nov 11, 2022 z Taiyuan Satellite Launch Center

Loading…

Następne Przeloty (najbliższe 24 godziny)

TLE

ŚwieżeSource: Space-Track

Epoka: Sep 14, 2026, 10:13 UTC

1 54959U 22151SY  26257.42634222  .00000355  00000-0  23367-3 0  9997
2 54959  98.8724 244.8232 0074592 124.7012 236.1213 14.06760624196663

Śledź CZ-6A DEB w czasie rzeczywistym z AllMySat

Download on the App Store